Location: İstanbul
(41.0082°N, 28.9784°E)
Time: 02:55:09
(UTC+03:00)

STARS - Visible Passes

Search period start: 24 April 2024 00:00
Search period end: 04 May 2024 00:00
Orbit: 608 x 620 km, 98.1° (Epoch: 23 April)

Date Brightness Start Highest point End Pass type
(mag) Time Alt. Az. Time Alt. Az. Time Alt. Az.
24 Apr ? 00:26:44 10° NE 00:26:49 10° NE 00:26:49 10° NE visible
24 Apr ? 02:02:47 10° NNW 02:03:51 15° NNW 02:03:51 15° NNW visible
25 Apr ? 00:41:50 10° NNE 00:42:28 14° NNE 00:42:28 14° NNE visible
25 Apr ? 02:18:41 10° NNW 02:19:30 13° NNW 02:19:30 13° NNW visible
26 Apr ? 00:57:04 10° NNE 00:58:06 17° NNE 00:58:06 17° NNE visible
26 Apr ? 02:34:55 10° NW 02:35:08 11° NW 02:35:08 11° NW visible
27 Apr ? 01:12:22 10° NNE 01:13:43 20° NNE 01:13:43 20° NNE visible
28 Apr ? 01:27:47 10° N 01:29:19 21° N 01:29:19 21° N visible
29 Apr ? 01:43:15 10° N 01:44:54 21° NNW 01:44:54 21° NNW visible
30 Apr ? 00:23:01 10° NE 00:23:25 12° NE 00:23:25 12° NE visible
30 Apr ? 01:58:50 10° N 02:00:28 19° NNW 02:00:28 19° NNW visible
01 May ? 00:37:59 10° NNE 00:38:58 16° NE 00:38:58 16° NE visible
01 May ? 02:14:34 10° NNW 02:16:00 16° NW 02:16:00 16° NW visible
02 May ? 00:53:04 10° NNE 00:54:30 20° NNE 00:54:30 20° NNE visible
02 May ? 02:30:33 10° NNW 02:31:32 13° NW 02:31:32 13° NW visible
03 May ? 01:08:16 10° NNE 01:10:01 24° NNE 01:10:01 24° NNE visible
